This is the latest recevied weather packets stored in our database for station/object KA1JKB. If no packets are shown the sender has not sent any weather packets the latest 10 day(s).
| Time | Temp. | Humidity | Pressure | Rain* | Wind** | Luminosity | Snow |
|---|---|---|---|---|---|---|---|
| 1777465556 | 8.33° C | 96% | 1010.2 hPa | 0 mm | - | 35 W/m² | - |
| 1777465250 | 8.33° C | 97% | 1010.2 hPa | 0 mm | - | 47 W/m² | - |
| 1777464946 | 8.33° C | 97% | 1010.2 hPa | 0 mm | - | 43 W/m² | - |
| 1777464641 | 7.78° C | 98% | 1010.1 hPa | 0 mm | - | 42 W/m² | - |
| 1777464337 | 7.78° C | 98% | 1010.2 hPa | 0 mm | - | 39 W/m² | - |
| 1777464033 | 7.78° C | 99% | 1010.2 hPa | 0 mm | - | 47 W/m² | - |
| 1777463728 | 7.78° C | 99% | 1010.4 hPa | 0 mm | - | 18 W/m² | - |
| 1777463423 | 7.78° C | 98% | 1010.4 hPa | 0 mm | - | 15 W/m² | - |
| 1777463119 | 7.78° C | 98% | 1010.7 hPa | 0 mm | - | 13 W/m² | - |
| 1777462815 | 7.78° C | 98% | 1010.5 hPa | 0 mm | - | 14 W/m² | - |
| 1777462510 | 8.33° C | 98% | 1010.3 hPa | 0 mm | - | 16 W/m² | - |
| 1777462207 | 7.78° C | 97% | 1010.3 hPa | 0 mm | - | 15 W/m² | - |
| 1777461903 | 7.78° C | 97% | 1010 hPa | 0 mm | - | 13 W/m² | - |
| 1777461600 | 8.33° C | 97% | 1010.1 hPa | 1.78 mm | - | 12 W/m² | - |
| 1777461295 | 8.33° C | 96% | 1010.1 hPa | 1.78 mm | - | 8 W/m² | - |
| 1777460991 | 8.33° C | 96% | 1010.1 hPa | 1.78 mm | - | 4 W/m² | - |
| 1777460687 | 8.33° C | 96% | 1010.1 hPa | 3.05 mm | - | 1 W/m² | - |
| 1777460383 | 8.33° C | 95% | 1010.2 hPa | 1.27 mm | - | 0 W/m² | - |
| 1777460078 | 8.33° C | 95% | 1010.5 hPa | 0 mm | - | 0 W/m² | - |
| 1777459776 | 8.33° C | 94% | 1010.4 hPa | 1.78 mm | - | 0 W/m² | - |
| 1777459473 | 8.89° C | 94% | 1010.4 hPa | 3.05 mm | - | 0 W/m² | - |
| 1777459170 | 8.89° C | 93% | 1010.4 hPa | 3.05 mm | - | 0 W/m² | - |
| 1777458868 | 8.89° C | 91% | 1010.1 hPa | 3.05 mm | - | 0 W/m² | - |
| 1777458564 | 9.44° C | 90% | 1010.4 hPa | 1.27 mm | - | 0 W/m² | - |
| 1777458261 | 9.44° C | 89% | 1010.7 hPa | 0 mm | - | 0 W/m² | - |
* Rain latest hour (hover to see other rain measurements)
** Current wind speed in m/s (hover to see current wind gust speed)